Погода в Тампико

Мексика     22°15′53″N   97°49′54″W
темп.,
°C
ветер,
м/с
пор.,
м/с
влажн.,
%
обл.,
%
осадки,
мм/ч
давл.,
гПа
погр.,
м
13 апреля, вт
вт1301:00+24юв499311 0.0 1007354
04:00+24вюв339355 0.0 1006123
07:00+24вюв22935 0.0 100771
10:00+25юв348925 0.0 1009215
13:00+25всв769155 0.0 1009331
16:00+25всв789347 0.0 1006482
19:00+25всв699436 0.1 1006369
22:00+25в5895100 0.0 1009227
14 апреля, ср
ср1401:00+25ссв3396100 0.0 1010100
04:00+25в2395100 0.1 101077
07:00+25вюв4594100 0.2 1010123
10:00+25юв339228 0.1 1012227
13:00+25в659182 0.1 1010316
16:00+25вюв679253 0.0 1007263
19:00+25вюв711921 0.0 1006335
22:00+25вюв589196 0.0 1009223
15 апреля, чт
чт1501:00+25ю119338 0.0 100987
04:00+24юв239198 0.0 100791
07:00+24всв44920 0.0 1008156
10:00+24вюв46913 0.0 1009313
13:00+25в449034 0.0 1008265
16:00+25в569043 0.0 1006333
19:00+25в69900 0.0 1004375
22:00+25в34910 0.0 1006111
16 апреля, пт
пт1601:00+25всв22923 0.0 100668
04:00+24всв23925 0.0 100590
07:00+24всв129168 0.0 100534
10:00+25вюв45880 0.0 1006294
13:00+25в339180 0.0 1004254
16:00+25в669055 0.0 1000302
19:00+25в57909 0.0 999291
22:00+25в23830 0.0 100166
17 апреля, сб
сб1701:00+25ссв56900 0.0 1002182
04:00+25ссв68910 0.0 1002247
07:00+24с710927 0.0 1005384
10:00+25с8109033 0.1 1008617
13:00+24ссв11149159 0.1 1008611
16:00+23ссв16178989 0.0 1008640
19:00+22ссв16198059 0.0 1008686
22:00+22с141674100 0.0 1013845